Find Starlink 34653

NORAD ID: 64917 Int'l Des: 2025-157 Owner: SPXS Country: US Constellation: starlink operational
LEOCIRCULAR

Live-Position

3D-Globus wird geladen...

Über Starlink 34653

Beschreibung wird geladen...

Nächste Überflüge

Passes for default location (London). Set your location on the main map for personalized predictions.

Höhenverlauf

Loading altitude history...

Zweizeiliger Elementsatz

1 64917U 25157P 26104.50881147 .00007836 00000-0 27635-3 0 9994
2 64917 53.1574 179.5855 0000723 66.8243 293.2834 15.30207285 41554
Epoch: 14. Apr. 2026 • Age: 10 hours

Aktueller Status

Höhe 484.1 km
Geschwindigkeit 7.62 km/s
Subsatellitenpunkt -28.31°S, 160.22°W
Startdatum 26. Juli 2025
Alter 0.7 years
Typ internet

Technische Details

Klassifizierung Payload
Masse 575.00 kg
Trockenmasse 530.00 kg
Gesamtmasse 575.00 kg
Länge 0.30 m
Durchmesser 4.10 m
Spannweite 29.00 m
Form Box + pan
Hersteller SPXS
Bus-Typ Starlink V2MO
Phasenstatus In Orbit
Besitzer/Staat SPXS/US

Most Searched